Location: Cheyres
(46.8153°N, 6.7877°E)
Time: 04:02:44
(UTC+00:00)

BREEZE-M DEB (TANK) - Pass Details

Date: 11 May 2021
Orbit: 772 x 34279 km, 45.8° (Epoch: 18 June)

Event Time Altitude Azimuth Distance (km) Brightness Sun altitude
Rises 19:23:09 0° 277° (W) 3,485 8.3 -4.8°
Reaches altitude 10° 19:25:23 10° 276° (W) 2,343 7.2 -5.1°
Maximum altitude 19:29:33 74° 191° (S) 896 3.8 -5.7°
Drops below altitude 10° 19:36:48 10° 107° (ESE) 3,987 6.6 -6.7°
Enters shadow 19:39:11 - 107° (ESE) 5,134 7.1 -7.1°
